Weather History for Alliance, NE

Change the Weather History Date:

Friday, September 13, 2013

  Actual Average Record
Temperature  
Mean Temperature 60 °F 61 °F  
Max Temperature 63 °F 78 °F 97 °F (1939)
Min Temperature 56 °F 44 °F 28 °F (1903)
Degree Days  
Heating Degree Days 5 6  
Month to date heating degree days 5 51  
Since 1 July heating degree days 13 88  
Cooling Degree Days 0 1  
Month to date cooling degree days 113 29  
Year to date cooling degree days 772 552  
Growing Degree Days 9 (Base 50)    
Moisture  
Dew Point 55 °F    
Average Humidity 84    
Maximum Humidity 100    
Minimum Humidity 67    
Precipitation  
Precipitation 0.39 in 0.04 in 0.44 in (1952)
Month to date precipitation 0.57 0.67  
Year to date precipitation 9.63 13.08  
Sea Level Pressure  
Sea Level Pressure 30.04 in    
Wind  
Wind Speed 18 mph (SSE)    
Max Wind Speed 26 mph    
Max Gust Speed 32 mph    
Visibility 7 miles    
Events Rain    
T = Trace of Precipitation, MM = Missing Value Source: NWS Daily Summary

Daily Weather History Graph

Daily Weather History Graph

Search for Another Location

Airport:

Trip Planner

Search our weather history database for the weather conditions in past years. The results will help you decide how hot, cold, wet, or windy it might be!

Date:

Astronomy

Sep. 13, 2013 Rise Set
Actual Time 6:29 AM MDT 7:03 PM MDT
Civil Twilight 6:01 AM MDT 7:31 PM MDT
Nautical Twilight 5:28 AM MDT 8:04 PM MDT
Astronomical Twilight 4:53 AM MDT 8:39 PM MDT
Moon 2:59 PM MDT (9/13) No Moon Set
Length of Visible Light 13h 30m
Length of Day
12h 34m
Waxing Gibbous, 62% of the Moon is Illuminated
Sep 13
Waxing Gibbous
Sep 19
Full
Sep 26
Last Quarter
Oct 4
New
Oct 11
First Quarter

Hourly Weather History & Observations

Time (MDT) Temp. Dew Point Humidity Pressure Visibility Wind Dir Wind Speed Gust Speed Precip Events Conditions
12:53 AM 62.1 °F 52.0 °F 70% 30.13 in 10.0 mi SE 5.8 mph - N/A   Overcast
1:53 AM 62.1 °F 54.0 °F 75% 30.12 in 10.0 mi SE 5.8 mph - N/A   Overcast
2:53 AM 63.0 °F 55.0 °F 75% 30.09 in 10.0 mi SE 10.4 mph - N/A   Overcast
3:53 AM 62.1 °F 53.1 °F 72% 30.09 in 10.0 mi ESE 11.5 mph - N/A   Overcast
4:53 AM 62.1 °F 52.0 °F 70% 30.08 in 10.0 mi SE 10.4 mph - N/A   Overcast
5:53 AM 61.0 °F 50.0 °F 67% 30.08 in 10.0 mi SE 15.0 mph - N/A   Overcast
6:53 AM 60.1 °F 51.1 °F 72% 30.09 in 10.0 mi SSE 17.3 mph 26.5 mph 0.00 in Rain Light Rain
7:05 AM 57.2 °F 53.6 °F 88% 30.19 in 6.0 mi SSE 16.1 mph 24.2 mph 0.00 in Rain Light Rain
7:33 AM 55.4 °F 53.6 °F 94% 30.19 in 3.0 mi SE 15.0 mph 20.7 mph 0.03 in Rain Light Rain
7:53 AM 55.9 °F 54.0 °F 93% 30.10 in 3.0 mi SE 16.1 mph - 0.05 in Rain Light Rain
8:10 AM 55.4 °F 53.6 °F 94% 30.18 in 3.0 mi SE 15.0 mph 23.0 mph 0.02 in Rain Light Rain
8:18 AM 55.4 °F 53.6 °F 94% 30.18 in 4.0 mi SE 17.3 mph 23.0 mph 0.02 in Rain Light Rain
8:29 AM 55.4 °F 53.6 °F 94% 30.18 in 7.0 mi SE 18.4 mph - 0.02 in Rain Light Rain
8:53 AM 55.9 °F 54.0 °F 93% 30.10 in 10.0 mi SE 23.0 mph - 0.02 in   Overcast
9:53 AM 55.9 °F 54.0 °F 93% 30.11 in 10.0 mi SE 19.6 mph 28.8 mph N/A   Overcast
10:53 AM 55.9 °F 54.0 °F 93% 30.11 in 10.0 mi SE 16.1 mph 31.1 mph N/A   Overcast
11:53 AM 57.0 °F 54.0 °F 89% 30.07 in 10.0 mi SSE 24.2 mph - N/A   Overcast
12:53 PM 57.9 °F 55.0 °F 90% 30.04 in 10.0 mi SE 23.0 mph 31.1 mph 0.00 in Rain Light Rain
1:53 PM 57.9 °F 55.9 °F 93% 30.01 in 10.0 mi SE 19.6 mph 29.9 mph 0.01 in   Overcast
2:53 PM 57.9 °F 55.9 °F 93% 29.98 in 4.0 mi SSE 20.7 mph 29.9 mph 0.02 in Rain Light Rain
3:53 PM 57.0 °F 55.9 °F 96% 29.97 in 10.0 mi SSE 26.5 mph 31.1 mph 0.00 in   Overcast
4:53 PM 57.0 °F 55.9 °F 96% 29.95 in 7.0 mi SSE 20.7 mph 32.2 mph N/A   Overcast
5:18 PM 57.2 °F 55.4 °F 94% 30.02 in 6.0 mi SSE 20.7 mph - N/A   Overcast
5:53 PM 55.9 °F 55.0 °F 97% 29.94 in 4.0 mi SSE 20.7 mph 26.5 mph N/A   Overcast
6:43 PM 57.2 °F 55.4 °F 94% 29.99 in 2.0 mi SSE 16.1 mph 26.5 mph N/A   Overcast
6:53 PM 57.0 °F 55.9 °F 96% 29.92 in 1.5 mi SSE 17.3 mph 25.3 mph N/A   Overcast
7:00 PM 57.2 °F 55.4 °F 94% 29.99 in 1.2 mi SSE 19.6 mph 26.5 mph N/A   Overcast
7:07 PM 57.2 °F 55.4 °F 94% 29.99 in 2.0 mi SSE 18.4 mph 26.5 mph N/A   Overcast
7:42 PM 57.2 °F 55.4 °F 94% 30.00 in 3.0 mi SSE 17.3 mph 25.3 mph N/A   Overcast
7:53 PM 57.0 °F 57.0 °F 100% 29.94 in 4.0 mi SSE 18.4 mph 26.5 mph N/A   Overcast
8:53 PM 57.9 °F 57.0 °F 97% 29.94 in 7.0 mi SSE 17.3 mph 21.9 mph N/A   Overcast
9:01 PM 57.2 °F 57.2 °F 100% 30.00 in 8.0 mi SSE 19.6 mph 25.3 mph N/A   Overcast
9:53 PM 57.9 °F 57.0 °F 97% 29.93 in 8.0 mi SSE 19.6 mph 27.6 mph N/A   Overcast
10:53 PM 59.0 °F 57.0 °F 93% 29.92 in 7.0 mi South 19.6 mph - N/A   Overcast
11:53 PM 59.0 °F 57.0 °F 93% 29.91 in 8.0 mi South 16.1 mph - N/A   Overcast